Location: Cutler
(25.6150°N, 80.3110°W)
Time: 15:37:44
(UTC-05:00)

Vanguard 1 - Pass Details

Date: 01 February 2018
Orbit: 650 x 3833 km, 34.2° (Epoch: 22 February)

Event Time Altitude Azimuth Distance (km) Brightness Sun altitude
Rises 01:47:16 0° 294° (WNW) 3,759 - -71.1°
Reaches altitude 10° 01:49:23 10° 294° (WNW) 3,040 - -70.7°
Maximum altitude 01:57:02 89° 206° (SSW) 1,689 - -69.1°
Exits shadow 02:07:28 21° 117° (ESE) 4,273 13.3 -66.8°
Drops below altitude 10° 02:11:53 10° 118° (ESE) 5,557 14.0 -65.9°
Sets 02:17:15 0° 118° (ESE) 7,031 14.7 -64.7°
